Abbotsford, British Columbia

6:03 PM PDT on September 22, 2017 (GMT -0700)
Abbotsford

Weather History for CYXX - June, 2013

Change the Weather History Date:

Saturday, June 15, 2013

  Actual Average Record
Temperature  
Mean Temperature 62 °F -  
Max Temperature 76 °F 72 °F 87 °F (2015)
Min Temperature 48 °F 50 °F 44 °F (2008)
Degree Days  
Heating Degree Days 3    
Growing Degree Days 12 (Base 50)    
Moisture  
Dew Point 53 °F    
Average Humidity 74    
Maximum Humidity 94    
Minimum Humidity 45    
Precipitation  
Precipitation 0.00 in 0.08 in - ()
Sea Level Pressure  
Sea Level Pressure 30.00 in    
Wind  
Wind Speed 5 mph ()    
Max Wind Speed 10 mph    
Max Gust Speed -    
Visibility 11.6 miles    
Events      
Averages and records for this station are not official NWS values.
T = Trace of Precipitation, MM = Missing Value Source: Averaged Metar Reports

Daily Weather History Graph

Daily Weather History Graph

Search for Another Location

Airport or City:

Trip Planner

Search our weather history database for the weather conditions in past years. The results will help you decide how hot, cold, wet, or windy it might be!

Date:

Astronomy

Jun. 15, 2013 Rise Set
Actual Time 5:04 AM PDT 9:15 PM PDT
Civil Twilight 4:21 AM PDT 9:58 PM PDT
Nautical Twilight 3:20 AM PDT 10:59 PM PDT
Astronomical Twilight 1:42 AM PDT 12:37 AM PDT
Moon 12:17 PM PDT (6/15) 12:23 AM PDT (6/15)
Length of Visible Light 17h 36m
Length of Day
16h 11m
Waxing Crescent, 40% of the Moon is Illuminated
Jun 15
Waxing Crescent
Jun 16
First Quarter
Jun 23
Full
Jun 29
Last Quarter
Jul 8
New

Hourly Weather History & Observations

Time (PDT) Temp. Dew Point Humidity Pressure Visibility Wind Dir Wind Speed Gust Speed Precip Events Conditions
12:00 AM 51.8 °F 50.0 °F 94% 30.10 in 10.0 mi NNE 6.9 mph - N/A   Clear
1:00 AM 50.0 °F 48.2 °F 94% 30.09 in 10.0 mi North 5.8 mph - N/A   Clear
2:00 AM 50.0 °F 48.2 °F 94% 30.06 in 8.0 mi NNE 6.9 mph - N/A   Clear
3:00 AM 50.0 °F 48.2 °F 94% 30.06 in 10.0 mi NNE 5.8 mph - N/A   Clear
4:00 AM 50.0 °F 48.2 °F 94% 30.05 in 15.0 mi NNE 6.9 mph - N/A   Partly Cloudy
5:00 AM 49 °F 47 °F 92% 30.03 in 28 mi NNE 6.9 mph - -   Clear
5:00 AM 50.0 °F 48.2 °F 94% 30.03 in 30.0 mi NNE 6.9 mph - N/A   Partly Cloudy
6:00 AM 50.0 °F 48.2 °F 94% 30.03 in 30.0 mi North 8.1 mph - N/A   Partly Cloudy
7:00 AM 53.6 °F 50.0 °F 88% 30.03 in 30.0 mi North 5.8 mph - N/A   Partly Cloudy
8:00 AM 57.2 °F 51.8 °F 82% 30.02 in 30.0 mi NNE 5.8 mph - N/A   Scattered Clouds
9:00 AM 60.8 °F 51.8 °F 72% 30.01 in 30.0 mi North 3.5 mph - N/A   Mostly Cloudy
10:00 AM 62.6 °F 50.0 °F 63% 30.01 in 30.0 mi North 2.3 mph - N/A   Mostly Cloudy
11:00 AM 65 °F 53 °F 57% 29.99 in 28 mi NNW 3.5 mph - -   Clear
11:00 AM 64.4 °F 53.6 °F 68% 29.99 in 30.0 mi North 4.6 mph - N/A   Mostly Cloudy
12:00 PM 68.0 °F 53.6 °F 60% 29.99 in 30.0 mi WSW 3.5 mph - N/A   Mostly Cloudy
1:00 PM 69.8 °F 53.6 °F 56% 29.98 in 30.0 mi WSW 5.8 mph - N/A   Mostly Cloudy
2:00 PM 73.4 °F 55.4 °F 53% 29.96 in 30.0 mi WSW 3.5 mph - N/A   Mostly Cloudy
3:00 PM 73.4 °F 55.4 °F 53% 29.95 in 30.0 mi SSW 6.9 mph - N/A   Overcast
4:00 PM 75.2 °F 59.0 °F 57% 29.94 in 30.0 mi WSW 10.4 mph - N/A   Mostly Cloudy
5:00 PM 76 °F 59 °F 45% 29.93 in 28 mi WSW 5.8 mph - -   Overcast
5:00 PM 75.2 °F 59.0 °F 57% 29.93 in 30.0 mi West 4.6 mph - N/A   Overcast
6:00 PM 73.4 °F 60.8 °F 65% 29.94 in 30.0 mi SW 9.2 mph - N/A   Overcast
7:00 PM 69.8 °F 57.2 °F 64% 29.94 in 30.0 mi SSW 9.2 mph - N/A   Overcast
8:00 PM 66.2 °F 55.4 °F 68% 29.94 in 30.0 mi SSW 8.1 mph - N/A   Overcast
9:00 PM 64.4 °F 55.4 °F 73% 29.95 in 30.0 mi South 4.6 mph - N/A   Mostly Cloudy
10:00 PM 62.6 °F 55.4 °F 77% 29.97 in 20.0 mi South 2.3 mph - N/A   Mostly Cloudy
11:00 PM 62 °F 55 °F 70% 29.98 in 10 mi SSW 3.5 mph - -   Partly Cloudy
11:00 PM 60.8 °F 55.4 °F 82% 29.98 in 10.0 mi SSW 4.6 mph - N/A   Mostly Cloudy